Location: Castle Hill Houses
(40.8186°N, 73.8497°W)
Time: 10:06:59
(UTC+00:00)

Cosmos 1535 Rocket - Pass Details

Date: 26 January 2020
Orbit: 949 x 1003 km, 83.0° (Epoch: 19 February)

Event Time Altitude Azimuth Distance (km) Brightness Sun altitude
Rises 00:19:58 0° 179° (S) 3,671 7.6 -25.7°
Reaches altitude 10° 00:22:27 10° 178° (S) 2,735 6.8 -26.2°
Maximum altitude 00:28:43 75° 95° (E) 1,032 4.3 -27.3°
Enters shadow 00:29:57 58° 31° (NNE) 1,150 4.6 -27.6°
Exits shadow 00:37:05 - 10° (N) 3,525 7.3 -28.9°
Sets 00:37:38 0° 10° (N) 3,737 7.5 -29.0°
